OpenBCM V1.08-5-g2f4a (Linux)

Packet Radio Mailbox

IZ3LSV

[San Dona' di P. JN]

 Login: GUEST





  
I0OJJ  > KEPS     04.02.25 04:48l 336 Lines 15892 Bytes #179 (0) @ AMSAT
BID : ORB25035.1
Read: GUEST
Subj: 2Line Orbital Elements 25035.AMSAT
Path: IZ3LSV<I0OJJ<I0OJJ
Sent: 250204/0345z @:I0OJJ.ITA.EU [Rome] obcm1.08-6-g5b69

>From i0ojj%i0ojj.ita.eu@i0ojj.ampr.org Tue Feb  4 04:45:15 2025
Received: from i0ojj.ampr.org by i0ojj.ampr.org (JNOS2.0p.5) with SMTP
	id AA17019885 ; Tue, 04 Feb 2025 04:45:15 +0100
Message-Id: <ORB25035.1@i0ojj.bbs>
>From: i0ojj@i0ojj.ita.eu
X-JNOS-User-Port: Uplink   (I0OJJ-2 on port hub)  ->  Sending message

From: I0OJJ @ I0OJJ.ITA.EU (Gustavo)
To:   KEPS @ AMSAT
X-Info: This message was generated automatically


QST de W1STR

AMSAT Orbital Elements for Amateur Satellites in TLE Format
>From Orbital Analysis Office
New England Sci-Tech STEM Education Center
Natick, MA February 04, 2025
To all radio amateurs


These element sets describe the orbits of various satellites 
in use by the amateur radio community. For details see:
www.amsat.org/keplerian-elements-formats/

A daily update of element sets is available at:
www.amsat.org/tle/daily-bulletin.txt
or without bulletin text:
www.amsat.org/tle/dailytle.txt


AO-07
1 07530U 74089B   25034.57651130 -.00000032  00000-0  90372-4 0  9996
2 07530 101.9928  37.5016 0012194   3.8918 112.3938 12.53685727298030
UO-11
1 14781U 84021B   25034.47094156  .00003755  00000-0  40845-3 0  9990
2 14781  97.7385   3.5240 0008986  43.0172 317.1746 14.88620327182870
AO-27
1 22825U 93061C   25034.68909570  .00000281  00000-0  12465-3 0  9998
2 22825  98.7564  95.5152 0009379 118.8565 241.3560 14.30721847635988
FO-29
1 24278U 96046B   25034.61717193  .00000069  00000-0  10873-3 0  9994
2 24278  98.5881 305.0094 0349238 309.0070  48.0446 13.53235682405736
NOAA-15
1 25338U 98030A   25034.80509825  .00000369  00000-0  16960-3 0  9995
2 25338  98.5493  62.8846 0010388  13.6718 346.4742 14.26874335390466
GO-32
1 25397U 98043D   25034.80381805  .00000272  00000-0  13817-3 0  9991
2 25397  98.9556  11.4014 0001143 160.7649 199.3572 14.24247150380606
ISS
1 25544U 98067A   25034.93470838  .00016440  00000-0  29774-3 0  9993
2 25544  51.6393 247.0317 0003632 271.8724 228.3522 15.49775170494498
NO-44
1 26931U 01043C   25034.55064040  .00000435  00000-0  19440-3 0  9990
2 26931  67.0506  93.6650 0006084 262.9463  97.0947 14.31607053219060
SO-50
1 27607U 02058C   25034.84669915  .00002814  00000-0  37654-3 0  9992
2 27607  64.5526 228.4454 0041078   6.3111 353.8503 14.80888680190810
CO-55
1 27844U 03031E   25034.54735730  .00000814  00000-0  37489-3 0  9997
2 27844  98.6787  44.4440 0009490 187.0669 173.0377 14.23801466120704
CO-57
1 27848U 03031J   25034.57855273  .00000688  00000-0  32381-3 0  9994
2 27848  98.6814  44.5729 0009099 204.2355 155.8397 14.23164795120447
RS-22
1 27939U 03042A   25034.79605644  .00002985  00000-0  48656-3 0  9990
2 27939  98.3123 201.3476 0012407  51.3864  60.9158 14.71703843142321
NOAA-18
1 28654U 05018A   25034.84132706  .00000383  00000-0  22646-3 0  9991
2 28654  98.8534 115.6961 0015088 125.1121 235.1468 14.13505842 15983
CO-58
1 28895U 05043F   25034.37338261  .00004324  00000-0  72691-3 0  9992
2 28895  98.2278 177.3747 0014714 350.4667   9.6257 14.70078636 28397
CO-65
1 32785U 08021C   25034.54309891  .00009865  00000-0  75675-3 0  9990
2 32785  97.7666   5.1022 0008657 283.4966  76.5293 15.01979397910140
AAUSAT2
1 32788U 08021F   25034.41428011  .00095218  00000-0  19529-2 0  9997
2 32788  97.6054  25.5506 0007484  89.1407 271.0699 15.45670355913655
CO-66
1 32791U 08021J   25034.46826973  .00020266  00000-0  11336-2 0  9994
2 32791  97.7175  12.2476 0001991 206.9555 153.1573 15.13497958911462
RS-30
1 32953U 08025A   25034.77376264  .00000039  00000-0  21366-3 0  9996
2 32953  82.5052 305.4424 0019258 322.9536  37.0214 12.43158291757904
NOAA-19
1 33591U 09005A   25034.75652044  .00000334  00000-0  20229-3 0  9990
2 33591  99.0159  98.6684 0013631   3.3039 356.8220 14.13276565824335
SRMSAT
1 37841U 11058D   25034.53880900  .00000688  00000-0  23072-3 0  9994
2 37841  19.9702 197.2369 0011781 118.2916 291.9183 14.11353039687280
ZACUBE-1
1 39417U 13066B   25034.41097084  .00009548  00000-0  87290-3 0  9992
2 39417  97.7650 352.4096 0047947 112.4092 248.2218 14.94333419606054
Delfi-N3xt
1 39428U 13066N   25034.32510937  .00015492  00000-0  16813-2 0  9998
2 39428  97.8375 313.6475 0091642  56.1775 304.8122 14.85155860600312
GOMX-1
1 39430U 13066Q   25034.73232360  .00004856  00000-0  77171-3 0  9994
2 39430  97.7002 261.0529 0133272 234.7256 124.1423 14.66705553596951
LO-74
1 39440U 13066AA  25034.81796668  .00007103  00000-0  75211-3 0  9991
2 39440  97.8375 340.5193 0062860 233.6621 125.8783 14.87995120603921
AO-73
1 39444U 13066AE  25034.40789064  .00013630  00000-0  11088-2 0  9995
2 39444  97.7484 356.3919 0043539  89.1957 271.4254 14.98919018604661
DTUSAT-2
1 40030U 14033W   25034.38957582  .00014072  00000-0  99183-3 0  9996
2 40030  98.0407   0.5045 0011330 121.3709 238.8626 15.05070333577395
EO-80
1 40032U 14033Y   25034.41689437  .00013645  00000-0  95952-3 0  9998
2 40032  98.0311   0.3587 0011404  72.4775 287.7696 15.05162652577375
XW-2C
1 40906U 15049H   25034.82137777  .00567110  14076-3  12281-2 0  9991
2 40906  97.4409  69.3307 0004077 158.8051 201.3396 15.98376850520573
LILACSAT-2
1 40908U 15049K   25034.81990543  .00015962  00000-0  47910-3 0  9990
2 40908  97.5174  52.4399 0008324 246.4500 113.5868 15.34502368518919
IO-86
1 40931U 15052B   25029.03811298  .00001879  00000-0  16388-3 0  9994
2 40931   5.9985 178.0957 0012329  44.5838 315.5281 14.78544596504930
Horyu-4
1 41340U 16012D   25033.72082425  .00031663  00000-0  10894-2 0  9998
2 41340  30.9976 260.1925 0005958 185.3472 174.7108 15.28858486493302
Lapan A3
1 41603U 16040E   25034.79768267  .00006221  00000-0  22735-3 0  9994
2 41603  97.1399  44.4480 0011442   8.4839 351.6592 15.28373334478562
CAS-2T
1 41847U 16066G   25034.22551736  .00003981  00000-0  57772-3 0  9990
2 41847  98.4338 109.7665 0348172 200.4102 158.2883 14.42846296432795
CAS-4B
1 42759U 17034B   25034.80284866  .00045933  00000-0  90463-3 0  9997
2 42759  43.0131 341.8652 0015131 138.0000 222.2022 15.46376452423029
CAS-4A
1 42761U 17034D   25034.83585546  .00046162  00000-0  89523-3 0  9992
2 42761  43.0170 339.6610 0016425 145.3105 214.8828 15.46798218423049
TechnoSat
1 42829U 17042E   25034.45391821  .00006148  00000-0  49550-3 0  9991
2 42829  97.3913 209.2808 0012657   5.5193 354.6169 15.00191335411808
AO-91
1 43017U 17073E   25034.58387138  .00016118  00000-0  87918-3 0  9993
2 43017  97.5484 268.6430 0182026 235.3302 123.0652 15.01293211390286
S-Net D
1 43186U 18014G   25034.26417308  .00010412  00000-0  65125-3 0  9991
2 43186  97.5743 298.5664 0007976 306.5784  53.4711 15.09582680383303
S-Net B
1 43187U 18014H   25034.26811236  .00010578  00000-0  66171-3 0  9995
2 43187  97.5745 298.5354 0008713 300.1883  59.8482 15.09568269383304
S-Net A
1 43188U 18014J   25034.26495128  .00010458  00000-0  65399-3 0  9992
2 43188  97.5755 298.6667 0008512 301.3160  58.7236 15.09586943383306
S-Net C
1 43189U 18014K   25034.66794920  .00009782  00000-0  61202-3 0  9996
2 43189  97.5768 299.0572 0010040 289.8420  70.1727 15.09574456381913
Ten-Koh
1 43677U 18084G   25034.45507432  .00006261  00000-0  51759-3 0  9997
2 43677  98.0825 201.7377 0012042 327.8235  32.2251 14.99262441341338
PO-101
1 43678U 18084H   25034.79754959  .00003424  00000-0  30107-3 0  9995
2 43678  98.0905 206.2756 0008475 349.3841  10.7199 14.97225708341555
QO-100
1 43700U 18090A   25034.33155083  .00000149  00000-0  00000-0 0  9998
2 43700   0.0189  95.4631 0001115 228.4887 314.9145  1.00272024 22671
MinXSS-2
1 43758U 18099A   25034.17720452  .00026541  00000-0  12422-2 0  9997
2 43758  97.5209 100.2219 0012460 237.7146 122.2882 15.19647366337735
AO-95
1 43770U 18099N   25034.73903723  .00013903  00000-0  77970-3 0  9995
2 43770  97.5118  94.4079 0010365 291.2868  68.7256 15.13442911337499
RANGE-A
1 43773U 18099R   25034.60847444  .00008629  00000-0  57874-3 0  9991
2 43773  97.4693  86.6944 0010346 263.5273  96.4777 15.07042392337234
MOVE-II
1 43780U 18099Y   25034.48845839  .00074423  00000-0  18354-2 0  9995
2 43780  97.4853 104.4322 0003901 242.8711 117.2137 15.40265505338205
SNUSat 2
1 43782U 18099AA  25034.69912439  .00012046  00000-0  71512-3 0  9990
2 43782  97.4809  92.0876 0011844 225.0688 134.9582 15.11412043337461
SnugLite
1 43784U 18099AC  25034.13391547  .00017306  00000-0  96282-3 0  9997
2 43784  97.4620  90.8950 0002732 218.8999 141.2036 15.13718045337484
ITASat 1
1 43786U 18099AE  25034.11889437  .00012919  00000-0  79257-3 0  9995
2 43786  97.4768  91.3616 0014060 283.9046  76.0620 15.10174196337357
EAGLET 1
1 43790U 18099AJ  25034.69441251  .00007948  00000-0  53142-3 0  9992
2 43790  97.4969  92.2217 0011266 260.1609  99.8347 15.07177233337090
ESEO
1 43792U 18099AL  25034.70989253  .00003038  00000-0  23773-3 0  9998
2 43792  97.4640  87.1127 0009465 216.7210 143.3367 15.01734071336925
CSIM
1 43793U 18099AM  25034.14998325  .00084249  00000-0  20810-2 0  9998
2 43793  97.5027 106.0355 0007474 220.3849 139.6843 15.40154936337991
JO-97
1 43803U 18099AX  25034.74303499  .00016271  00000-0  84352-3 0  9990
2 43803  97.4865  95.2098 0007420 217.6673 142.4041 15.16223204337675
Suomi 100
1 43804U 18099AY  25034.11939927  .00019161  00000-0  10423-2 0  9991
2 43804  97.4932  94.1857 0012648 224.5598 135.4618 15.14437203337534
ISAT
1 43879U 18111D   25034.70298202  .00026202  00000-0  11276-2 0  9998
2 43879  97.6039 306.9267 0007976 283.8603  76.1745 15.22571380332472
UWE-4
1 43880U 18111E   25034.27826655  .00023001  00000-0  10673-2 0  9995
2 43880  97.5980 305.7213 0011548 296.9818  63.0237 15.19986125334408
Sparrow
1 43881U 18111F   25034.64035766  .00028148  00000-0  11809-2 0  9991
2 43881  97.6165 309.3115 0006980 336.4722  23.6194 15.23427876334563
